Left ArrowRight Arrow

33.98154, -81.23621

Hourly Observations for February 17, 2022

Temp ( °F °C ) Dew Point ( °F °C ) Humidity (%) Winds ( mph kmh ) Pressure ( in mb ) Visibility ( mi km ) Precip ( " mm )
12:03 am 00:03 Cloudy 54 12.2 52 11.1 93 93 Calm 30.39 1029 10 16 0.00 0.00
12:56 am 00:56 Cloudy 55 12.8 52 11.1 90 90 Calm 30.37 1029 10 16 0.00 0.00
1:35 am 01:35 Cloudy 56 13.3 54 12.2 93 93 SE 3 6 30.36 1028 10 16 0.00 0.00
1:56 am 01:56 Cloudy 56 13.3 54 12.2 93 93 ESE 3 6 30.35 1028 9 14 0.00 0.00
2:56 am 02:56 Cloudy 57 13.9 55 12.8 93 93 ESE 5 7 30.33 1027 8 13 0.00 0.00
3:18 am 03:18 Cloudy 57 13.9 55 12.8 93 93 ESE 5 7 30.33 1027 9 14 0.00 0.00
3:56 am 03:56 Cloudy 57 13.9 55 12.8 93 93 SE 5 7 30.32 1027 9 14 0.00 0.00
4:56 am 04:56 Cloudy 57 13.9 55 12.8 93 93 E 3 6 30.32 1027 9 14 0.00 0.00
5:56 am 05:56 Cloudy 57 13.9 55 12.8 93 93 Calm 30.32 1027 8 13 0.00 0.00
6:17 am 06:17 Cloudy with Mist and Fog 56 13.3 55 12.8 97 97 E 6 9 30.31 1026 6 10 0.00 0.00
6:56 am 06:56 Cloudy with Mist and Fog 56 13.3 55 12.8 97 97 E 3 6 30.31 1026 3 5 0.00 0.00
7:04 am 07:04 Cloudy with Fog 55 13 55 13 100 100 ESE 3 6 30.31 1026 1 1 0.00 0.00
7:56 am 07:56 Mostly Cloudy with Fog 55 12.8 55 12.8 100 100 ESE 5 7 30.30 1026 0 0 0.00 0.00
8:13 am 08:13 Mostly Cloudy with Fog 56 13.3 55 12.8 97 97 ESE 3 6 30.31 1026 1 1 0.00 0.00
8:56 am 08:56 Cloudy with Mist and Fog 56 13.3 56 13.3 100 100 E 5 7 30.29 1026 1 2 0.00 0.00
9:14 am 09:14 Mostly Cloudy with Mist and Fog 57 14 55 13 94 94 SE 5 7 30.29 1026 6 10 0.00 0.00
9:24 am 09:24 Mostly Cloudy with Mist and Fog 58 14.4 56 13.3 93 93 ESE 5 7 30.28 1025 6 10 0.00 0.00
9:56 am 09:56 Mostly Cloudy 67 19.4 57 13.9 71 71 S 12 19 30.25 1025 10 16 0.00 0.00
10:56 am 10:56 Mostly Cloudy 71 21.7 56 13.3 59 59 S 23 37 30.22 1023 10 16 0.00 0.00
11:56 am 11:56 Mostly Cloudy 73 22.8 55 12.8 53 53 S 17 28 30.20 1023 10 16 0.00 0.00
12:56 pm 12:56 Mostly Cloudy 76 24.4 55 12.8 48 48 S 15 24 30.15 1021 10 16 0.00 0.00
1:56 pm 13:56 Mostly Cloudy 78 25.6 54 12.2 43 43 S 20 31 30.09 1019 10 16 0.00 0.00
2:56 pm 14:56 Mostly Cloudy 78 25.6 55 12.8 45 45 S 17 28 30.04 1017 10 16 0.00 0.00
3:56 pm 15:56 Mostly Cloudy 77 25 56 13.3 48 48 SSE 22 35 29.99 1016 10 16 0.00 0.00
4:56 pm 16:56 Mostly Cloudy 75 23.9 57 13.9 54 54 S 18 30 29.98 1015 10 16 0.00 0.00
5:56 pm 17:56 Mostly Cloudy 73 22.8 58 14.4 59 59 S 13 20 29.97 1015 10 16 0.00 0.00
6:56 pm 18:56 Mostly Cloudy 72 22.2 60 15.6 66 66 S 14 22 29.96 1015 10 16 0.00 0.00
7:56 pm 19:56 Mostly Cloudy 70 21.1 62 16.7 76 76 S 15 24 29.93 1014 10 16 0.00 0.00
8:12 pm 20:12 Mostly Cloudy 70 21.1 62 16.7 76 76 S 21 33 29.93 1014 10 16 0.00 0.00
8:56 pm 20:56 Cloudy 69 20.6 63 17.2 81 81 S 17 28 29.91 1013 10 16 0.00 0.00
9:56 pm 21:56 Cloudy 69 20.6 63 17.2 81 81 S 15 24 29.89 1012 10 16 0.00 0.00
10:56 pm 22:56 Mostly Cloudy 70 21.1 63 17.2 79 79 SSW 18 30 29.91 1013 10 16 0.00 0.00
11:54 pm 23:54 Mostly Cloudy 70 21 63 17 78 78 S 14 22 29.87 1012 10 16 0.00 0.00
11:56 pm 23:56 Mostly Cloudy 69 20.6 63 17.2 81 81 S 15 24 29.87 1012 10 16 0.00 0.00

Powered by Vaisala Xweather